This demonstration page uses our WeatherBlox Daily Observations layout. Learn more.

39.92423, -83.80882

Hourly Observations for December 26, 2017

Temp ( °F °C ) Dew Point ( °F °C ) Humidity (%) Winds ( mph kmh ) Pressure ( in mb ) Visibility ( mi km ) Precip ( " mm )
12:56 am 00:56 Cloudy 15 -9.4 7 -13.9 70 70 W 8 13 30.45 1031 10 16.0934 0 0
1:56 am 01:56 Mostly Cloudy 15 -9.4 7 -13.9 70 70 WNW 10 17 30.45 1031 10 16.0934 0 0
3:56 am 03:56 Mostly Cloudy 12 -11.1 6 -14.4 77 77 NW 7 11 30.49 1032 10 16.0934 0 0
4:56 am 04:56 Cloudy 13 -10.6 6 -14.4 74 74 WNW 7 11 30.49 1033 10 16.0934 0 0
5:56 am 05:56 Cloudy with Light Snow 13 -10.6 5 -15 70 70 W 9 15 30.51 1033 9 14.48406 0 0.0254
6:10 am 06:10 Cloudy with Light Snow 14 -10 7 -14 73 73 W 8 13 30.53 1034 2.5 4.02335 0 0.0254
6:25 am 06:25 Cloudy with Light Snow 12 -11 7 -14 79 79 WSW 6 9 30.53 1034 3 4.82802 0 0.0254
6:56 am 06:56 Cloudy with Light Snow 13 -10.6 8 -13.3 81 81 W 10 17 30.53 1034 4 6.43736 0 0.0254
7:07 am 07:07 Cloudy with Light Snow 12 -11 9 -13 85 85 W 8 13 30.53 1034 5 8.0467 0 0.0254
7:56 am 07:56 Cloudy with Light Snow 12 -11.1 8 -13.3 84 84 W 8 13 30.54 1034 9 14.48406 0 0.0254
8:56 am 08:56 Cloudy 13 -10.6 8 -13.3 81 81 WNW 13 20 30.55 1035 10 16.0934 0 0.0254
9:56 am 09:56 Cloudy with Light Snow 15 -9.4 6 -14.4 67 67 W 12 19 30.57 1035 9 14.48406 0 0.0254
10:56 am 10:56 Cloudy 16 -8.9 8 -13.3 71 71 WSW 10 17 30.59 1036 10 16.0934 0 0.0254
11:56 am 11:56 Cloudy 20 -6.7 8 -13.3 60 60 W 6 9 30.56 1035 10 16.0934 0 0
12:56 pm 12:56 Cloudy 19 -7.2 6 -14.4 57 57 WNW 13 20 30.55 1035 10 16.0934 0 0
1:56 pm 13:56 Cloudy 19 -7.2 5 -15 54 54 W 13 20 30.55 1035 10 16.0934 0 0
2:56 pm 14:56 Cloudy with Light Snow 17 -8.3 7 -13.9 64 64 WNW 10 17 30.55 1035 3 4.82802 0 0.0254
3:56 pm 15:56 Cloudy with Light Snow 16 -8.9 8 -13.3 71 71 WNW 6 9 30.55 1035 4 6.43736 0 0.0254
4:56 pm 16:56 Cloudy with Light Snow 15 -9.4 8 -13.3 74 74 WNW 5 7 30.54 1034 6 9.65604 0 0.0254
5:56 pm 17:56 Cloudy with Light Snow 14 -10 8 -13.3 77 77 NW 7 11 30.55 1035 8 12.87472 0 0.0254
6:56 pm 18:56 Cloudy with Light Snow 12 -11.1 8 -13.3 84 84 NW 7 11 30.56 1035 9 14.48406 0 0.0254
7:56 pm 19:56 Cloudy 12 -11.1 6 -14.4 77 77 NW 8 13 30.57 1035 10 16.0934 0 0.0254
8:56 pm 20:56 Cloudy with Light Snow 12 -11.1 6 -14.4 77 77 NW 9 15 30.56 1035 9 14.48406 0 0.0254
9:56 pm 21:56 Cloudy 11 -11.7 1 -17.2 64 64 NW 7 11 30.58 1035 10 16.0934 0 0.0254
10:56 pm 22:56 Cloudy 10 -12.2 0 -17.8 63 63 NW 12 19 30.59 1036 10 16.0934 0 0
11:56 pm 23:56 Cloudy 9 -12.8 0 -17.8 66 66 NNW 10 17 30.6 1036 10 16.0934 0 0

Powered by AerisWeather